Location: Andershausen
(51.8462°N, 9.8595°E)
Time: 01:57:22
(UTC+00:00)

Cosmos 1484 Rocket - Pass Details

Date: 18 November 2025
Orbit: 442 x 473 km, 97.6° (Epoch: 13 December)

Event Time Altitude Azimuth Distance (km) Brightness Sun altitude
Rises 16:25:44 0° 181° (S) 2,506 6.5 -9.2°
Reaches altitude 10° 16:27:50 10° 188° (S) 1,638 5.6 -9.5°
Maximum altitude 16:31:12 42° 261° (W) 691 4.0 -10.0°
Drops below altitude 10° 16:34:37 10° 334° (NNW) 1,663 5.4 -10.5°
Sets 16:36:47 0° 341° (NNW) 2,549 6.2 -10.8°
